TimeCST,TemperatureF,Dew PointF,Humidity,Sea Level PressureIn,VisibilityMPH,Wind Direction,Wind SpeedMPH,Gust SpeedMPH,PrecipitationIn,Events,Conditions,WindDirDegrees,DateUTC
12:54 AM,70.0,55.0,59,29.76,10.0,South,19.6,-,N/A,,Clear,180,2012-11-10 06:54:00
1:54 AM,71.1,55.0,57,29.76,10.0,South,19.6,34.5,N/A,,Clear,180,2012-11-10 07:54:00
2:54 AM,70.0,55.0,59,29.77,10.0,South,19.6,32.2,N/A,,Clear,180,2012-11-10 08:54:00
3:54 AM,70.0,55.0,59,29.75,10.0,South,20.7,31.1,N/A,,Clear,190,2012-11-10 09:54:00
4:54 AM,69.1,55.9,63,29.77,10.0,South,23.0,31.1,N/A,,Clear,180,2012-11-10 10:54:00
5:54 AM,68.0,55.9,65,29.78,10.0,South,21.9,31.1,N/A,,Clear,190,2012-11-10 11:54:00
6:54 AM,66.9,55.9,68,29.78,10.0,South,21.9,27.6,N/A,,Clear,180,2012-11-10 12:54:00
7:54 AM,66.9,55.9,68,29.81,10.0,South,24.2,29.9,N/A,,Partly Cloudy,180,2012-11-10 13:54:00
8:54 AM,69.1,57.0,65,29.80,10.0,South,24.2,34.5,N/A,,Clear,190,2012-11-10 14:54:00
9:54 AM,71.1,57.9,63,29.79,10.0,South,28.8,36.8,N/A,,Partly Cloudy,180,2012-11-10 15:54:00
10:54 AM,72.0,57.9,61,29.77,10.0,South,28.8,38.0,N/A,,Partly Cloudy,180,2012-11-10 16:54:00
11:54 AM,72.0,57.9,61,29.74,10.0,South,31.1,42.6,N/A,,Mostly Cloudy,180,2012-11-10 17:54:00
12:54 PM,72.0,57.9,61,29.72,10.0,South,26.5,40.3,N/A,,Overcast,190,2012-11-10 18:54:00
1:54 PM,73.9,57.9,57,29.68,10.0,South,25.3,35.7,N/A,,Overcast,170,2012-11-10 19:54:00
2:54 PM,73.9,57.0,55,29.66,10.0,South,25.3,38.0,N/A,,Mostly Cloudy,180,2012-11-10 20:54:00
3:54 PM,73.9,55.9,53,29.65,10.0,South,28.8,38.0,N/A,,Clear,180,2012-11-10 21:54:00
4:54 PM,73.0,55.9,55,29.66,10.0,South,24.2,29.9,N/A,,Clear,170,2012-11-10 22:54:00
5:54 PM,71.1,55.9,59,29.67,10.0,South,21.9,29.9,N/A,,Clear,170,2012-11-10 23:54:00
6:54 PM,71.1,55.9,59,29.68,10.0,South,26.5,38.0,N/A,,Clear,170,2012-11-11 00:54:00
7:54 PM,71.1,55.9,59,29.65,10.0,South,31.1,40.3,N/A,,Clear,170,2012-11-11 01:54:00
8:54 PM,70.0,55.9,61,29.62,10.0,South,31.1,46.0,N/A,,Clear,170,2012-11-11 02:54:00
10:54 PM,70.0,55.9,61,29.67,10.0,South,27.6,39.1,N/A,,Partly Cloudy,180,2012-11-11 04:54:00
11:54 PM,70.0,55.9,61,29.66,10.0,South,24.2,29.9,N/A,Thunderstorm,Clear,180,2012-11-11 05:54:00